TimeEST,TemperatureF,Dew PointF,Humidity,Sea Level PressureIn,VisibilityMPH,Wind Direction,Wind SpeedMPH,Gust SpeedMPH,PrecipitationIn,Events,Conditions,WindDirDegrees,DateUTC
12:53 AM,73.0,61.0,66,30.19,10.0,East,11.5,-,N/A,,Scattered Clouds,80,2012-12-03 05:53:00
1:53 AM,71.1,60.1,68,30.18,10.0,East,9.2,-,N/A,,Scattered Clouds,90,2012-12-03 06:53:00
2:53 AM,70.0,60.1,71,30.17,10.0,East,8.1,-,N/A,,Clear,90,2012-12-03 07:53:00
3:53 AM,72.0,61.0,68,30.16,10.0,NE,3.5,-,N/A,,Partly Cloudy,40,2012-12-03 08:53:00
4:53 AM,70.0,62.1,76,30.16,10.0,East,9.2,-,N/A,,Scattered Clouds,90,2012-12-03 09:53:00
5:53 AM,72.0,61.0,68,30.18,10.0,ENE,5.8,-,N/A,,Partly Cloudy,70,2012-12-03 10:53:00
6:53 AM,69.8,62.6,78,30.19,10.0,NNE,4.6,-,N/A,,Mostly Cloudy,30,2012-12-03 11:53:00
7:53 AM,73.0,64.9,76,30.21,10.0,ENE,4.6,-,0.02,,Mostly Cloudy,70,2012-12-03 12:53:00
8:53 AM,75.0,63.0,66,30.23,10.0,East,17.3,-,N/A,,Mostly Cloudy,90,2012-12-03 13:53:00
9:53 AM,73.9,63.0,68,30.24,9.0,ENE,12.7,20.7,0.02,Rain,Light Rain,70,2012-12-03 14:53:00
10:53 AM,77.0,62.1,60,30.22,10.0,ENE,12.7,24.2,0.00,,Scattered Clouds,70,2012-12-03 15:53:00
11:53 AM,75.0,64.0,69,30.21,10.0,NE,10.4,21.9,0.00,,Mostly Cloudy,40,2012-12-03 16:53:00
12:53 PM,78.1,61.0,56,30.19,10.0,ENE,12.7,-,0.00,,Scattered Clouds,70,2012-12-03 17:53:00
1:53 PM,79.0,62.1,56,30.17,10.0,ENE,15.0,25.3,N/A,,Mostly Cloudy,60,2012-12-03 18:53:00
2:53 PM,78.1,60.1,54,30.16,10.0,ENE,15.0,19.6,N/A,,Scattered Clouds,70,2012-12-03 19:53:00
3:53 PM,75.0,57.9,55,30.17,10.0,NE,11.5,-,N/A,,Mostly Cloudy,40,2012-12-03 20:53:00
4:53 PM,75.0,55.9,51,30.17,10.0,NE,8.1,-,N/A,,Scattered Clouds,40,2012-12-03 21:53:00
5:53 PM,73.0,55.0,53,30.19,10.0,NNE,5.8,-,N/A,,Partly Cloudy,30,2012-12-03 22:53:00
6:53 PM,72.0,55.0,55,30.20,10.0,NNE,5.8,-,N/A,,Mostly Cloudy,30,2012-12-03 23:53:00
7:53 PM,72.0,54.0,53,30.21,10.0,North,4.6,-,N/A,,Scattered Clouds,10,2012-12-04 00:53:00
8:53 PM,73.0,50.0,44,30.21,10.0,ENE,6.9,-,N/A,,Scattered Clouds,60,2012-12-04 01:53:00
9:53 PM,69.1,51.1,53,30.21,10.0,East,8.1,-,N/A,,Scattered Clouds,90,2012-12-04 02:53:00
10:53 PM,72.0,52.0,49,30.21,10.0,East,10.4,-,N/A,,Scattered Clouds,90,2012-12-04 03:53:00
11:53 PM,71.1,48.0,44,30.20,10.0,East,10.4,-,N/A,,Partly Cloudy,90,2012-12-04 04:53:00